Location: *
(53.3561°N, 7.9088°W)
Time: 16:44:02
(UTC+00:00)

Daily predictions for brighter satellites

Satellite Brightness Start Highest point End
(mag) Time Altitude Azimuth Time Altitude Azimuth Time Altitude Azimuth
SPOT 1/Viking Rocket 3.5 18:03:03 10° SSE 18:08:07 67° ENE 18:13:14 10° N
Meteor 2-1 Rocket 4.4 18:02:39 10° N 18:08:22 56° ENE 18:14:09 10° SSE
CZ-2D R/B 4.0 18:07:22 10° SE 18:10:59 35° ENE 18:14:41 10° N
Cosmos 2292 Rocket 2.6 18:08:13 10° S 18:11:07 72° E 18:14:24 10° NNE
Okean 1 Rocket 3.3 18:06:53 10° N 18:11:09 46° ENE 18:15:21 10° SSE
Cosmos 1356 Rocket 3.2 18:07:41 10° N 18:11:38 70° ENE 18:15:35 10° SSE
CZ-4C R/B 2.2 18:08:36 10° SSW 18:12:42 45° SE 18:17:55 10° NE
SL-16 R/B 3.0 18:06:33 10° NNE 18:12:43 68° WNW 18:18:52 10° SSW
Okean 2 Rocket 3.1 18:12:05 10° N 18:16:27 58° ENE 18:20:46 10° SSE
Meteor 1-21 Rocket 4.4 18:13:01 10° S 18:18:57 89° ESE 18:24:55 10° NNE
Cosmos 2221 Rocket 4.2 18:16:48 10° SSE 18:20:51 35° E 18:24:58 10° NNE
Cosmos 1378 Rocket 3.5 18:17:03 10° S 18:21:19 73° E 18:25:37 10° NNE
USA 267 3.4 18:16:03 10° ENE 18:22:35 67° SSE 18:29:06 10° SW
SJ-6F 4.3 18:20:23 10° SSE 18:24:19 90° WSW 18:28:16 10° NNW
SJ-6B 4.0 18:23:30 10° ESE 18:25:55 18° ENE 18:28:20 10° NNE
ATLAS 5 CENTAUR R/B 4.3 18:22:34 10° WNW 18:26:07 25° WSW 18:30:16 10° S
IRS-P3 4.2 18:21:16 10° SSE 18:26:36 89° E 18:31:59 10° NNW
Cosmos 1980 3.7 18:22:37 10° NNW 18:28:19 74° NE 18:33:57 10° SE
Cosmos 724 4.4 18:22:55 10° SW 18:29:05 80° SE 18:35:10 10° NE
Cosmos 1867 3.7 18:23:45 10° SW 18:29:13 86° NW 18:34:43 10° NE
Cosmos 1025 Rocket 3.1 18:27:07 10° S 18:31:19 53° E 18:35:34 10° NNE
Sich 1 Rocket 3.6 18:26:55 10° N 18:31:29 67° ENE 18:36:00 10° SSE
COSMOS 2428 3.5 18:25:57 10° NW 18:31:35 59° WSW 18:37:11 10° SSE
Geosat FO 4.3 18:29:26 10° NNE 18:32:34 80° WNW 18:35:36 10° SW
Cosmos 2237 Rocket 2.2 18:27:53 10° NNW 18:33:36 75° ENE 18:39:18 10° SE
ATLAS CENTAUR R/B 3.0 18:33:24 10° N 18:33:58 10° N 18:34:32 10° NNE
Cosmos 1814 Rocket 4.0 18:30:04 10° SSW 18:35:21 89° WNW 18:40:36 10° NNE
Meteor 1-27 4.5 18:30:50 10° N 18:36:26 49° ENE 18:42:04 10° SE
SKYMED 2 3.7 18:32:26 10° NNE 18:36:44 56° E 18:41:01 10° S
Meteor 1-31 Rocket 4.3 18:36:36 13° ENE 18:37:26 14° ENE 18:39:15 10° NNE
GP-B 3.4 18:33:09 10° S 18:37:30 74° W 18:41:54 10° N
Cosmos 2123 Rocket 4.3 18:32:29 10° SSW 18:38:48 74° WNW 18:45:08 10° N
CZ-2D R/B 4.3 18:36:44 10° S 18:39:38 39° W 18:42:33 10° NNW
Cosmos 1125 Rocket 3.6 18:34:44 10° NNW 18:39:57 81° WSW 18:45:09 10° SSE
SJ-7 4.2 18:38:39 10° SSE 18:42:15 57° ENE 18:45:53 10° N
Resurs 1-3 3.5 18:38:19 10° SSE 18:42:37 84° ENE 18:46:57 10° NNW
Cosmos 158 Rocket 3.9 18:38:27 10° SSW 18:43:18 82° WNW 18:48:14 10° NNE
SeaSat 1 3.2 18:39:03 10° SSE 18:43:52 57° WSW 18:48:43 10° NW
SAR-Lupe-1 4.3 18:40:56 10° S 18:44:29 72° WSW 18:48:04 10° NNW
Resurs 01 Rocket 1.9 18:40:59 10° SE 18:45:09 44° ENE 18:49:22 10° N
NOSS 3-3 (C) 3.8 18:44:14 10° SSW 18:49:27 61° SE 18:55:46 10° NE
SPOT 5 4.0 18:45:53 10° ESE 18:49:50 25° ENE 18:53:57 10° N
Cosmos 1674 Rocket 3.9 18:53:40 10° SSW 18:58:03 72° WNW 19:02:30 10° N
SL-16 R/B 2.6 18:53:57 10° NNW 18:59:22 43° NE 19:03:58 14° ESE
Spot 4 Rocket 4.0 18:55:40 10° SSE 19:00:47 88° WSW 19:05:56 10° NNW
NOAA 6 4.0 18:55:55 10° SSE 19:01:04 78° ENE 19:06:15 10° NNW
Cosmos 2227 Rocket 3.1 18:56:54 10° SSE 19:01:32 27° ESE 19:05:16 14° NE
Cosmos 773 Rocket 4.5 18:59:37 10° S 19:04:28 39° ESE 19:09:21 10° NE
CARTOSAT-1 3.4 19:01:40 10° SSE 19:05:52 84° ENE 19:10:06 10° NNW
ARIANE 5 R/B 4.4 19:01:31 10° SSW 19:06:06 33° W 19:10:41 10° NNW
Cosmos 1447 Rocket 4.4 19:03:06 10° S 19:09:13 80° E 19:15:24 10° NNE
USA 290 4.2 19:09:15 10° WSW 19:12:04 28° NW 19:14:54 10° N
NOSS 3-3 (A) 3.8 19:11:02 10° SW 19:16:22 88° NW 19:22:15 13° NE
CZ-4 R/B 2.3 19:17:56 24° NE 19:17:56 24° NE 19:20:43 10° N
Okean O Rocket 3.7 19:20:32 12° NE 19:20:32 12° NE 19:21:14 10° NNE
ARIANE 6 FM1 Upper Stage 2.7 19:15:36 10° NW 19:19:30 54° NNE 19:21:05 31° E
CRYOSAT 2 4.3 19:18:23 10° N 19:23:18 71° E 19:28:10 10° S
Cosmos 836 Rocket 4.5 19:18:45 10° S 19:23:57 63° ESE 19:29:12 10° NNE
CZ-4B R/B 4.0 19:26:09 27° E 19:27:20 29° ENE 19:31:50 10° N
Cosmos 2150 Rocket 3.9 19:22:38 10° NNW 19:27:50 87° WSW 19:32:58 10° SSE
Cosmos 1544 Rocket 3.9 19:24:16 10° N 19:28:25 42° ENE 19:30:03 29° ESE
Terra 3.1 19:30:49 23° NE 19:30:49 23° NE 19:34:03 10° N
Cosmos 2298 Rocket 4.0 19:25:44 10° NNW 19:31:04 87° WSW 19:36:22 10° SSE
BREEZE-M (TANK) 4.3 19:28:44 10° WSW 19:31:17 27° SSW 19:36:14 12° SE
Cosmos 2034 Rocket 4.0 19:27:17 10° N 19:33:23 57° ENE 19:39:28 10° SSE
NOSS 3-4 (A) 4.2 19:26:59 10° NW 19:33:31 65° SW 19:41:14 10° SSE
Cosmos 1455 Rocket 3.6 19:29:19 10° NNW 19:33:33 58° W 19:37:46 10° S
NOSS 3-4 (C) 4.2 19:27:15 10° NW 19:33:49 65° SW 19:41:32 10° SSE
Cosmos 1072 Rocket 4.4 19:28:16 10° N 19:34:34 86° E 19:40:45 10° S
CSL-04 Debris 4.3 19:30:41 17° SE 19:34:42 51° ENE 19:39:56 10° N
COSMO-SKYMED 1 2.8 19:31:19 10° N 19:35:26 67° WNW 19:39:31 10° SSW
Cosmos 1782 2.4 19:31:52 10° N 19:35:28 69° ENE 19:37:19 26° SSE
TSX-5 4.4 19:30:12 10° NNW 19:35:36 58° NE 19:37:23 35° ESE
Cosmos 2228 2.8 19:31:38 10° N 19:35:50 89° E 19:40:03 10° S
RESURS DK-1 3.6 19:32:35 10° NNW 19:35:40 24° NE 19:35:40 24° NE
YAOGAN 1 4.4 19:33:10 10° SSW 19:37:01 33° W 19:40:54 10° NNW
PSLV R/B 4.5 19:33:03 10° S 19:37:02 47° W 19:41:00 10° NNW
Cosmos 1975 Rocket 2.9 19:33:39 10° S 19:37:57 64° E 19:42:14 10° NNE
Lacrosse 5 rocket 1.5 19:35:35 10° W 19:39:01 47° N 19:39:50 39° NE
CSL-04 Rocket 3.6 19:35:10 16° SE 19:39:17 57° ENE 19:44:29 10° N
Cosmos 44 Rocket 3.4 19:35:00 10° SSW 19:39:49 55° SE 19:41:48 34° ENE
Cosmos 1634 Rocket 4.4 19:34:39 10° N 19:40:37 41° ENE 19:43:02 30° ESE
Cosmos 2082 Rocket 4.5 19:38:17 10° NW 19:41:02 14° N 19:43:48 10° NNE
Cosmos 1607 4.4 19:36:18 10° WSW 19:42:22 57° NW 19:47:32 15° NE
Cosmos 2297 Rocket 2.3 19:40:07 10° SW 19:45:48 81° WNW 19:51:31 10° NNE
Cosmos 1943 3.7 19:41:51 10° NNW 19:47:16 41° NE 19:48:32 36° ENE
DNEPR-1 R/B 4.5 19:45:14 10° NW 19:49:57 59° SW 19:54:28 16° SSE
ATLAS 2AS CENTAUR R/B 3.7 19:45:26 10° WNW 19:51:41 35° N 19:55:21 21° NE
BREEZE-M DEB (TANK) 4.5 19:32:26 10° WSW 19:53:24 54° S 19:56:30 32° ESE
SJ-6B 3.5 19:55:41 10° S 19:59:00 46° W 20:02:21 10° NNW
CZ-4C R/B 2.7 19:56:19 10° WSW 20:00:53 50° NNW 20:04:22 22° NE
Cosmos 1464 Rocket 4.3 19:54:45 10° NNW 20:01:06 71° W 20:07:21 10° S
ERS-1 Rocket 3.3 20:02:08 44° ENE 20:02:08 44° ENE 20:06:39 10° N
Cosmos 972 Rocket 4.0 19:57:19 10° NNW 20:02:13 56° ENE 20:02:46 53° E
Cosmos 2279 Rocket 4.3 19:57:14 10° N 20:03:04 41° ENE 20:03:20 41° ENE
CZ-4B R/B 3.8 20:03:23 48° S 20:04:25 80° WSW 20:08:19 10° NNW
USA 267 3.3 20:02:28 32° ENE 20:05:42 72° NNW 20:12:14 10° W
ATLAS CENTAUR R/B 3.2 20:06:08 10° NNW 20:06:44 14° NNW 20:06:44 14° NNW
Meteor 1-31 Rocket 3.0 20:10:36 57° NW 20:10:36 57° NW 20:13:32 10° NNW
Feng Yun 1-1 Rocket 4.2 20:09:36 38° SE 20:11:56 72° ENE 20:17:51 10° NNW
Cosmos 2263 Rocket 2.3 20:08:27 10° S 20:13:31 52° SE 20:13:31 52° SE
Cosmos 2237 Rocket 4.4 20:12:39 10° NW 20:17:07 24° WSW 20:21:35 10° SSW
PAYLOAD B 4.1 20:18:16 49° SE 20:19:50 78° ENE 20:25:28 10° NNW
Resurs 01 Rocket 3.7 20:17:57 10° SSW 20:21:42 27° W 20:25:27 10° NW
ADEOS 3.4 20:23:44 71° ENE 20:23:49 71° ENE 20:29:00 10° NNW
SPOT 5 3.2 20:24:55 30° S 20:27:19 66° WSW 20:32:27 10° NNW
Cosmos 1833 Rocket 4.4 20:28:01 10° NNW 20:31:47 20° NNE 20:31:47 20° NNE
Cosmos 2344 3.3 20:24:56 10° SSW 20:32:28 62° SE 20:33:48 54° E
SL-16 R/B 3.1 20:38:10 10° NW 20:43:32 46° WSW 20:45:53 30° SSW
Cosmos 2227 Rocket 2.4 20:39:31 10° SW 20:45:09 68° NW 20:47:08 40° NNE
CZ-4 R/B 3.2 20:52:56 26° NW 20:52:56 26° NW 20:55:02 10° NNW
Tsikada Rocket 3.9 20:48:00 10° SSW 20:54:09 82° WNW 21:00:23 10° N
IRS-1A Rocket 4.4 20:54:59 67° N 20:54:59 67° N 20:59:54 10° NNW
Okean O Rocket 3.7 20:57:46 19° N 20:57:46 19° N 20:59:06 10° N
MetOp-B 4.4 20:59:41 68° WNW 20:59:41 68° WNW 21:04:40 10° NNW
Terra 3.2 21:09:26 35° NNW 21:09:26 35° NNW 21:12:14 10° NNW
CZ-4B R/B 3.6 21:07:59 58° W 21:07:59 58° W 21:12:53 10° NNW
Lacrosse 5 rocket 4.1 21:12:40 10° WNW 21:13:16 14° WNW 21:13:16 14° WNW
Cosmos 2082 Rocket 4.3 21:24:00 10° NNW 21:26:42 16° N 21:26:42 16° N
Cosmos 2297 Rocket 4.2 21:26:06 10° W 21:30:43 25° NW 21:33:28 18° N
Cosmos 1943 4.2 21:25:56 10° NW 21:30:20 44° WNW 21:30:20 44° WNW
ATLAS 2AS CENTAUR R/B 3.5 21:37:29 10° NW 21:42:46 42° N 21:42:46 42° N
USA 267 3.7 21:49:48 56° NW 21:49:48 56° NW 21:55:01 10° WNW
CZ-4C R/B 3.8 21:45:32 10° WNW 21:49:19 30° NNW 21:49:19 30° NNW
Cosmos 2263 Rocket 4.1 21:52:45 10° WSW 21:55:18 24° W 21:55:18 24° W
Cosmos 2227 Rocket 4.4 22:25:55 10° W 22:29:02 21° NW 22:29:02 21° NW
